| time (UTC) | temp C | wind direction | speed KPH | gust KPH | rain 1hr cm | rain 24hr cm | rain mn cm | humidity % | barometer mb |
| 20260507095502 | 9 | 290 | 4.8 | 8.0 | 0.00 | 0.84 | 0.13 | 87 | 1006.6 |
| 20260507095003 | 9 | 290 | 3.2 | 8.0 | 0.00 | 0.84 | 0.13 | 88 | 1007.2 |
| 20260507094503 | 9 | 212 | 1.6 | 4.8 | 0.00 | 0.84 | 0.13 | 88 | 1007.3 |
| 20260507094045 | 9 | 174 | 1.6 | 4.8 | 0.00 | 0.84 | 0.13 | 88 | 1006.8 |
| 20260507093502 | 9 | 246 | 1.6 | 4.8 | 0.00 | 0.84 | 0.13 | 88 | 1007.1 |
| 20260507093003 | 9 | 242 | 1.6 | 6.4 | 0.00 | 0.84 | 0.13 | 88 | 1007.1 |
| 20260507092502 | 9 | 304 | 1.6 | 6.4 | 0.00 | 0.84 | 0.13 | 88 | 1006.9 |
| 20260507092002 | 9 | 214 | 0.0 | 4.8 | 0.00 | 0.84 | 0.13 | 89 | 1007.1 |
| 20260507091524 | 9 | 209 | 1.6 | 4.8 | 0.00 | 0.84 | 0.13 | 89 | 1007.3 |
| 20260507091002 | 9 | 287 | 1.6 | 8.0 | 0.00 | 0.84 | 0.13 | 89 | 1007.2 |
| 20260507090502 | 9 | 269 | 1.6 | 8.0 | 0.00 | 0.84 | 0.13 | 87 | 1007.2 |
| 20260507090003 | 9 | 225 | 1.6 | 8.0 | 0.00 | 0.84 | 0.13 | 87 | 1007.0 |
| 20260507085002 | 9 | 288 | 4.8 | 12.9 | 0.00 | 0.84 | 0.13 | 86 | 1006.8 |
| 20260507084502 | 9 | 315 | 1.6 | 4.8 | 0.00 | 0.84 | 0.13 | 86 | 1006.7 |
| 20260507084003 | 9 | 305 | 1.6 | 12.9 | 0.00 | 0.84 | 0.13 | 85 | 1007.0 |
| 20260507083502 | 9 | 291 | 1.6 | 17.7 | 0.00 | 0.84 | 0.13 | 86 | 1007.0 |
| 20260507083002 | 9 | 298 | 8.0 | 17.7 | 0.00 | 0.84 | 0.13 | 87 | 1006.7 |
| 20260507082502 | 10 | 306 | 1.6 | 4.8 | 0.00 | 0.84 | 0.13 | 88 | 1006.7 |
| 20260507082003 | 10 | 294 | 1.6 | 4.8 | 0.00 | 0.84 | 0.13 | 88 | 1006.7 |
| 20260507081545 | 10 | 284 | 1.6 | 6.4 | 0.00 | 0.84 | 0.13 | 87 | 1006.9 |
| 20260507081002 | 10 | 277 | 1.6 | 8.0 | 0.00 | 0.84 | 0.13 | 87 | 1006.7 |
| 20260507080502 | 10 | 282 | 3.2 | 8.0 | 0.00 | 0.84 | 0.13 | 87 | 1006.7 |
| 20260507080003 | 10 | 288 | 3.2 | 14.5 | 0.03 | 0.84 | 0.13 | 85 | 1006.9 |
| 20260507075502 | 10 | 316 | 3.2 | 14.5 | 0.03 | 0.84 | 0.13 | 85 | 1007.0 |
| 20260507075002 | 10 | 331 | 3.2 | 14.5 | 0.00 | 0.81 | 0.10 | 83 | 1006.9 |
| 20260507074524 | 10 | 325 | 4.8 | 14.5 | 0.00 | 0.81 | 0.10 | 84 | 1006.9 |
| 20260507074023 | 10 | 283 | 3.2 | 9.7 | 0.00 | 0.81 | 0.10 | 85 | 1007.1 |
| 20260507073502 | 10 | 305 | 3.2 | 8.0 | 0.00 | 0.81 | 0.10 | 84 | 1006.9 |
| 20260507073002 | 10 | 288 | 3.2 | 8.0 | 0.00 | 0.81 | 0.10 | 84 | 1006.7 |
| 20260507072502 | 10 | 317 | 3.2 | 6.4 | 0.00 | 0.81 | 0.10 | 84 | 1006.5 |
| 20260507072003 | 10 | 231 | 3.2 | 14.5 | 0.00 | 0.81 | 0.10 | 84 | 1006.4 |
| 20260507071523 | 10 | 320 | 4.8 | 14.5 | 0.00 | 0.81 | 0.10 | 84 | 1006.2 |
| 20260507071002 | 10 | 306 | 4.8 | 9.7 | 0.00 | 0.81 | 0.10 | 85 | 1006.3 |
| 20260507070503 | 10 | 310 | 1.6 | 9.7 | 0.00 | 0.81 | 0.10 | 86 | 1006.6 |
| 20260507070024 | 10 | 300 | 3.2 | 11.3 | 0.00 | 0.81 | 0.10 | 87 | 1006.3 |
| 20260507065502 | 10 | 325 | 1.6 | 11.3 | 0.00 | 0.81 | 0.10 | 86 | 1006.2 |
| 20260507065002 | 10 | 321 | 3.2 | 6.4 | 0.00 | 0.81 | 0.10 | 88 | 1006.2 |
| 20260507064503 | 10 | 244 | 1.6 | 4.8 | 0.00 | 0.81 | 0.10 | 88 | 1006.2 |
| 20260507064002 | 10 | 237 | 1.6 | 4.8 | 0.00 | 0.81 | 0.10 | 88 | 1006.3 |
| 20260507063502 | 10 | 274 | 1.6 | 4.8 | 0.00 | 0.81 | 0.10 | 87 | 1006.1 |
| 20260507063023 | 10 | 238 | 1.6 | 6.4 | 0.00 | 0.81 | 0.10 | 86 | 1006.4 |
| 20260507062503 | 10 | 274 | 0.0 | 6.4 | 0.00 | 0.81 | 0.10 | 84 | 1006.1 |
| 20260507062002 | 10 | 303 | 0.0 | 8.0 | 0.00 | 0.81 | 0.10 | 84 | 1006.0 |
| 20260507061502 | 10 | 319 | 4.8 | 16.1 | 0.00 | 0.81 | 0.10 | 83 | 1006.0 |
| 20260507061023 | 10 | 313 | 3.2 | 16.1 | 0.00 | 0.81 | 0.10 | 83 | 1006.1 |
| 20260507060502 | 10 | 294 | 3.2 | 12.9 | 0.00 | 0.81 | 0.10 | 83 | 1006.1 |
| 20260507060003 | 11 | 290 | 3.2 | 17.7 | 0.00 | 0.81 | 0.10 | 83 | 1006.2 |
| 20260507055502 | 11 | 308 | 8.0 | 17.7 | 0.00 | 0.81 | 0.10 | 83 | 1006.2 |
| 20260507055003 | 11 | 320 | 6.4 | 16.1 | 0.00 | 0.81 | 0.10 | 84 | 1006.3 |
| 20260507054502 | 11 | 284 | 4.8 | 16.1 | 0.00 | 0.81 | 0.10 | 85 | 1006.4 |
| 20260507054002 | 11 | 289 | 9.7 | 16.1 | 0.00 | 0.81 | 0.10 | 86 | 1006.5 |
| 20260507053502 | 11 | 289 | 4.8 | 12.9 | 0.00 | 0.81 | 0.10 | 86 | 1006.3 |
| 20260507053003 | 11 | 277 | 3.2 | 16.1 | 0.00 | 0.81 | 0.10 | 87 | 1006.3 |
| 20260507052502 | 11 | 302 | 4.8 | 16.1 | 0.00 | 0.81 | 0.10 | 86 | 1006.3 |
| 20260507052003 | 11 | 301 | 8.0 | 16.1 | 0.00 | 0.81 | 0.10 | 86 | 1006.5 |
| 20260507051502 | 11 | 305 | 6.4 | 14.5 | 0.00 | 0.81 | 0.10 | 87 | 1006.7 |
| 20260507051002 | 11 | 281 | 4.8 | 14.5 | 0.00 | 0.81 | 0.10 | 87 | 1006.6 |
| 20260507050502 | 11 | 277 | 4.8 | 12.9 | 0.00 | 0.81 | 0.10 | 88 | 1006.4 |
| 20260507050003 | 12 | 288 | 3.2 | 17.7 | 0.10 | 0.81 | 0.10 | 89 | 1006.5 |
| 20260507045503 | 12 | 308 | 3.2 | 17.7 | 0.10 | 0.81 | 0.10 | 89 | 1006.5 |
| 20260507045002 | 12 | 289 | 3.2 | 17.7 | 0.10 | 0.81 | 0.10 | 89 | 1006.4 |
| 20260507044503 | 12 | 278 | 4.8 | 17.7 | 0.10 | 0.81 | 0.10 | 89 | 1006.4 |
| 20260507044002 | 12 | 306 | 8.0 | 17.7 | 0.10 | 0.81 | 0.10 | 90 | 1006.2 |
| 20260507043503 | 13 | 305 | 4.8 | 16.1 | 0.10 | 0.81 | 0.10 | 90 | 1006.2 |
| 20260507043002 | 13 | 304 | 4.8 | 14.5 | 0.10 | 0.81 | 0.10 | 90 | 1006.2 |
| 20260507042502 | 13 | 310 | 8.0 | 14.5 | 0.08 | 0.79 | 0.08 | 90 | 1006.2 |
| 20260507042002 | 13 | 311 | 3.2 | 12.9 | 0.08 | 0.79 | 0.08 | 90 | 1006.2 |
| 20260507041502 | 13 | 318 | 6.4 | 14.5 | 0.08 | 0.79 | 0.08 | 89 | 1006.3 |
| 20260507041002 | 13 | 312 | 4.8 | 20.9 | 0.08 | 0.79 | 0.08 | 88 | 1006.4 |
| 20260507040502 | 13 | 303 | 11.3 | 20.9 | 0.05 | 0.76 | 0.05 | 88 | 1006.4 |
| 20260507040003 | 13 | 303 | 4.8 | 20.9 | 0.00 | 0.00 | 0.00 | 89 | 1006.2 |
| 20260507035502 | 14 | 259 | 1.6 | 14.5 | 0.00 | 0.71 | 0.71 | 91 | 1006.2 |
| 20260507035003 | 14 | 315 | 1.6 | 14.5 | 0.00 | 0.71 | 0.71 | 91 | 1005.9 |
| 20260507034502 | 14 | 223 | 0.0 | 4.8 | 0.00 | 0.71 | 0.71 | 91 | 1005.8 |
| 20260507034025 | 14 | 241 | 1.6 | 6.4 | 0.00 | 0.71 | 0.71 | 91 | 1005.9 |
| 20260507033502 | 14 | 234 | 1.6 | 16.1 | 0.00 | 0.71 | 0.71 | 90 | 1005.8 |
| 20260507033003 | 15 | 249 | 3.2 | 17.7 | 0.00 | 0.71 | 0.71 | 91 | 1005.6 |
| 20260507032523 | 15 | 295 | 4.8 | 19.3 | 0.00 | 0.71 | 0.71 | 91 | 1005.6 |
| 20260507032023 | 15 | 273 | 8.0 | 19.3 | 0.00 | 0.71 | 0.71 | 92 | 1005.5 |
| 20260507031503 | 15 | 219 | 4.8 | 12.9 | 0.00 | 0.71 | 0.71 | 92 | 1005.4 |
| 20260507031002 | 15 | 274 | 4.8 | 12.9 | 0.00 | 0.71 | 0.71 | 92 | 1005.4 |
| 20260507030503 | 15 | 241 | 3.2 | 16.1 | 0.00 | 0.71 | 0.71 | 92 | 1005.1 |
| 20260507030003 | 15 | 206 | 6.4 | 16.1 | 0.00 | 0.71 | 0.71 | 92 | 1005.1 |
| 20260507025503 | 15 | 211 | 4.8 | 16.1 | 0.00 | 0.71 | 0.71 | 92 | 1005.1 |
| 20260507025002 | 15 | 208 | 8.0 | 17.7 | 0.00 | 0.71 | 0.71 | 92 | 1005.1 |
| 20260507024503 | 15 | 193 | 8.0 | 17.7 | 0.00 | 0.71 | 0.71 | 92 | 1005.1 |
| 20260507024003 | 15 | 188 | 8.0 | 17.7 | 0.00 | 0.71 | 0.71 | 91 | 1005.2 |
| 20260507023502 | 15 | 195 | 9.7 | 17.7 | 0.00 | 0.71 | 0.71 | 91 | 1005.3 |
| 20260507023002 | 15 | 192 | 9.7 | 14.5 | 0.00 | 0.71 | 0.71 | 92 | 1005.2 |
| 20260507022502 | 15 | 208 | 8.0 | 14.5 | 0.00 | 0.71 | 0.71 | 92 | 1005.2 |
| 20260507022002 | 15 | 198 | 9.7 | 16.1 | 0.00 | 0.71 | 0.71 | 92 | 1005.1 |
| 20260507021524 | 15 | 192 | 6.4 | 17.7 | 0.00 | 0.71 | 0.71 | 92 | 1005.1 |
| 20260507021002 | 15 | 205 | 6.4 | 17.7 | 0.00 | 0.71 | 0.71 | 92 | 1005.1 |
| 20260507020503 | 15 | 186 | 8.0 | 16.1 | 0.00 | 0.71 | 0.71 | 92 | 1004.9 |
| 20260507020024 | 15 | 200 | 9.7 | 17.7 | 0.00 | 0.71 | 0.71 | 91 | 1005.0 |
| 20260507015503 | 15 | 202 | 9.7 | 17.7 | 0.00 | 0.71 | 0.71 | 91 | 1005.3 |
| 20260507015023 | 15 | 192 | 11.3 | 16.1 | 0.00 | 0.71 | 0.71 | 91 | 1005.2 |
| 20260507014502 | 15 | 190 | 8.0 | 16.1 | 0.00 | 0.71 | 0.71 | 91 | 1005.4 |
| 20260507014002 | 15 | 196 | 9.7 | 17.7 | 0.00 | 0.71 | 0.71 | 91 | 1005.3 |
| 20260507013502 | 15 | 202 | 6.4 | 17.7 | 0.00 | 0.71 | 0.71 | 91 | 1005.2 |
| 20260507013003 | 15 | 199 | 11.3 | 17.7 | 0.00 | 0.71 | 0.71 | 91 | 1005.3 |
| 20260507012502 | 15 | 195 | 8.0 | 17.7 | 0.00 | 0.71 | 0.71 | 92 | 1005.5 |
| 20260507012003 | 15 | 181 | 9.7 | 17.7 | 0.00 | 0.71 | 0.71 | 92 | 1005.4 |
| 20260507011502 | 15 | 201 | 8.0 | 22.5 | 0.00 | 0.71 | 0.71 | 92 | 1005.5 |
| 20260507011003 | 15 | 199 | 9.7 | 22.5 | 0.00 | 0.71 | 0.71 | 92 | 1005.5 |
| 20260507010502 | 15 | 198 | 8.0 | 16.1 | 0.00 | 0.71 | 0.71 | 92 | 1005.5 |
| 20260507010003 | 15 | 195 | 9.7 | 17.7 | 0.03 | 0.71 | 0.71 | 92 | 1005.6 |
| 20260507005502 | 15 | 202 | 6.4 | 17.7 | 0.03 | 0.71 | 0.71 | 92 | 1005.5 |
| 20260507005023 | 15 | 211 | 8.0 | 19.3 | 0.03 | 0.71 | 0.71 | 92 | 1005.4 |
| 20260507004524 | 15 | 201 | 11.3 | 19.3 | 0.03 | 0.71 | 0.71 | 92 | 1005.5 |
| 20260507004002 | 15 | 186 | 8.0 | 22.5 | 0.03 | 0.71 | 0.71 | 92 | 1005.4 |
| 20260507003524 | 15 | 191 | 12.9 | 22.5 | 0.00 | 0.69 | 0.69 | 92 | 1005.3 |
| 20260507003003 | 15 | 187 | 8.0 | 19.3 | 0.00 | 0.69 | 0.69 | 92 | 1005.2 |
| 20260507002523 | 15 | 204 | 8.0 | 17.7 | 0.00 | 0.69 | 0.69 | 92 | 1005.2 |
| 20260507002003 | 15 | 189 | 9.7 | 19.3 | 0.00 | 0.69 | 0.69 | 92 | 1005.3 |
| 20260507001502 | 15 | 189 | 9.7 | 19.3 | 0.00 | 0.69 | 0.69 | 92 | 1005.3 |
| 20260507001003 | 15 | 198 | 6.4 | 20.9 | 0.00 | 0.69 | 0.69 | 92 | 1005.1 |
| 20260507000502 | 15 | 193 | 11.3 | 20.9 | 0.00 | 0.69 | 0.69 | 92 | 1005.1 |
| 20260507000003 | 15 | 184 | 9.7 | 17.7 | 0.18 | 0.69 | 0.69 | 92 | 1005.0 |
| 20260506235502 | 15 | 188 | 9.7 | 17.7 | 0.18 | 0.69 | 0.69 | 92 | 1005.0 |
| 20260506235003 | 15 | 182 | 8.0 | 14.5 | 0.18 | 0.69 | 0.69 | 92 | 1005.0 |
| 20260506234502 | 15 | 179 | 9.7 | 19.3 | 0.18 | 0.69 | 0.69 | 92 | 1005.1 |
| 20260506234002 | 15 | 197 | 8.0 | 19.3 | 0.18 | 0.69 | 0.69 | 92 | 1004.9 |
| 20260506233503 | 15 | 187 | 8.0 | 19.3 | 0.18 | 0.69 | 0.69 | 92 | 1005.1 |
| 20260506233002 | 15 | 198 | 12.9 | 19.3 | 0.18 | 0.69 | 0.69 | 92 | 1005.0 |
| 20260506232504 | 15 | 192 | 8.0 | 17.7 | 0.18 | 0.69 | 0.69 | 92 | 1005.0 |
| 20260506232024 | 15 | 190 | 8.0 | 17.7 | 0.15 | 0.66 | 0.66 | 92 | 1005.1 |
| 20260506231045 | 15 | 189 | 8.0 | 17.7 | 0.05 | 0.56 | 0.56 | 91 | 1005.2 |
| 20260506230503 | 15 | 191 | 6.4 | 24.1 | 0.03 | 0.53 | 0.53 | 91 | 1005.2 |
| 20260506230002 | 15 | 192 | 11.3 | 24.1 | 0.20 | 0.51 | 0.51 | 91 | 1005.4 |
| 20260506225544 | 15 | 204 | 9.7 | 22.5 | 0.18 | 0.48 | 0.48 | 91 | 1005.4 |
| 20260506225003 | 15 | 183 | 8.0 | 24.1 | 0.15 | 0.46 | 0.46 | 91 | 1005.3 |
| 20260506224502 | 15 | 197 | 9.7 | 24.1 | 0.15 | 0.46 | 0.46 | 91 | 1005.3 |
| 20260506224024 | 15 | 181 | 9.7 | 24.1 | 0.10 | 0.41 | 0.41 | 91 | 1005.3 |
| 20260506223503 | 15 | 190 | 11.3 | 24.1 | 0.10 | 0.41 | 0.41 | 91 | 1005.5 |
| 20260506223002 | 15 | 194 | 8.0 | 20.9 | 0.08 | 0.38 | 0.38 | 91 | 1005.5 |
| 20260506222503 | 15 | 190 | 9.7 | 20.9 | 0.05 | 0.36 | 0.36 | 90 | 1005.5 |
| 20260506222002 | 15 | 197 | 4.8 | 19.3 | 0.03 | 0.33 | 0.33 | 90 | 1005.5 |
| 20260506221524 | 15 | 192 | 8.0 | 19.3 | 0.03 | 0.33 | 0.33 | 90 | 1005.6 |
| 20260506221024 | 15 | 180 | 6.4 | 19.3 | 0.03 | 0.33 | 0.33 | 90 | 1005.6 |
| 20260506220524 | 15 | 189 | 9.7 | 19.3 | 0.03 | 0.33 | 0.33 | 90 | 1005.6 |
| 20260506220002 | 15 | 178 | 11.3 | 22.5 | 0.05 | 0.30 | 0.30 | 90 | 1005.7 |
| 20260506215523 | 15 | 198 | 9.7 | 22.5 | 0.05 | 0.30 | 0.30 | 90 | 1005.7 |
| 20260506215002 | 15 | 183 | 12.9 | 22.5 | 0.03 | 0.28 | 0.28 | 90 | 1005.7 |
| 20260506214524 | 15 | 185 | 12.9 | 20.9 | 0.03 | 0.28 | 0.28 | 90 | 1005.7 |
| 20260506214023 | 15 | 192 | 11.3 | 19.3 | 0.03 | 0.28 | 0.28 | 90 | 1005.7 |
| 20260506213503 | 15 | 178 | 4.8 | 16.1 | 0.03 | 0.28 | 0.28 | 91 | 1005.8 |
| 20260506213023 | 15 | 203 | 8.0 | 16.1 | 0.03 | 0.28 | 0.28 | 90 | 1005.9 |
| 20260506212524 | 15 | 174 | 9.7 | 17.7 | 0.03 | 0.28 | 0.28 | 90 | 1006.1 |
| 20260506212003 | 15 | 188 | 11.3 | 17.7 | 0.03 | 0.28 | 0.28 | 90 | 1006.1 |
| 20260506211502 | 16 | 192 | 6.4 | 16.1 | 0.03 | 0.28 | 0.28 | 89 | 1006.1 |
| 20260506211003 | 16 | 179 | 9.7 | 29.0 | 0.00 | 0.25 | 0.25 | 89 | 1006.1 |
| 20260506210502 | 16 | 212 | 9.7 | 29.0 | 0.00 | 0.25 | 0.25 | 89 | 1006.3 |
| 20260506210003 | 16 | 197 | 8.0 | 20.9 | 0.00 | 0.25 | 0.25 | 89 | 1006.2 |
| 20260506205502 | 16 | 191 | 6.4 | 16.1 | 0.15 | 0.23 | 0.23 | 89 | 1006.2 |
| 20260506205002 | 16 | 199 | 9.7 | 17.7 | 0.15 | 0.23 | 0.23 | 89 | 1006.3 |
| 20260506204503 | 16 | 180 | 8.0 | 20.9 | 0.13 | 0.20 | 0.20 | 88 | 1006.3 |
| 20260506204002 | 16 | 191 | 9.7 | 20.9 | 0.10 | 0.18 | 0.18 | 87 | 1006.2 |
| 20260506203503 | 16 | 193 | 9.7 | 20.9 | 0.10 | 0.18 | 0.18 | 87 | 1006.3 |
| 20260506203024 | 16 | 190 | 11.3 | 25.7 | 0.08 | 0.15 | 0.15 | 86 | 1006.2 |
| 20260506202502 | 16 | 199 | 11.3 | 30.6 | 0.08 | 0.15 | 0.15 | 86 | 1006.1 |
| 20260506202003 | 16 | 184 | 9.7 | 38.6 | 0.05 | 0.13 | 0.13 | 84 | 1006.0 |
| 20260506201502 | 17 | 189 | 11.3 | 38.6 | 0.03 | 0.10 | 0.10 | 83 | 1006.2 |
| 20260506201003 | 17 | 185 | 14.5 | 22.5 | 0.00 | 0.08 | 0.08 | 83 | 1006.1 |
| 20260506200502 | 17 | 190 | 11.3 | 25.7 | 0.00 | 0.08 | 0.08 | 82 | 1006.2 |
| 20260506200003 | 17 | 188 | 9.7 | 25.7 | 0.08 | 0.08 | 0.08 | 82 | 1006.2 |
| 20260506195503 | 17 | 199 | 12.9 | 24.1 | 0.08 | 0.08 | 0.08 | 80 | 1006.1 |
| 20260506195002 | 17 | 198 | 14.5 | 22.5 | 0.08 | 0.08 | 0.08 | 79 | 1006.1 |
| 20260506194503 | 17 | 198 | 8.0 | 17.7 | 0.05 | 0.05 | 0.05 | 80 | 1006.1 |
| 20260506194045 | 18 | 189 | 12.9 | 25.7 | 0.05 | 0.05 | 0.05 | 78 | 1006.0 |
| 20260506193502 | 18 | 193 | 11.3 | 25.7 | 0.03 | 0.03 | 0.03 | 77 | 1006.0 |
| 20260506193024 | 18 | 196 | 9.7 | 24.1 | 0.03 | 0.03 | 0.03 | 75 | 1006.0 |
| 20260506192502 | 18 | 182 | 11.3 | 24.1 | 0.03 | 0.03 | 0.03 | 75 | 1005.9 |
| 20260506192002 | 18 | 197 | 9.7 | 20.9 | 0.03 | 0.03 | 0.03 | 73 | 1006.0 |
| 20260506191502 | 18 | 202 | 11.3 | 25.7 | 0.00 | 0.00 | 0.00 | 73 | 1006.1 |
| 20260506191045 | 19 | 202 | 9.7 | 25.7 | 0.00 | 0.00 | 0.00 | 70 | 1006.1 |
| 20260506190524 | 20 | 203 | 11.3 | 14.5 | 0.00 | 0.00 | 0.00 | 69 | 1006.1 |
| 20260506190002 | 20 | 190 | 8.0 | 19.3 | 0.00 | 0.00 | 0.00 | 66 | 1006.1 |
| 20260506185502 | 20 | 198 | 8.0 | 25.7 | 0.00 | 0.00 | 0.00 | 64 | 1006.0 |
| 20260506185002 | 20 | 193 | 16.1 | 25.7 | 0.00 | 0.00 | 0.00 | 62 | 1006.1 |
| 20260506184503 | 21 | 196 | 9.7 | 19.3 | 0.00 | 0.00 | 0.00 | 61 | 1006.0 |
| 20260506184003 | 21 | 200 | 11.3 | 22.5 | 0.00 | 0.00 | 0.00 | 61 | 1006.1 |
| 20260506183502 | 21 | 190 | 12.9 | 33.8 | 0.00 | 0.00 | 0.00 | 60 | 1006.0 |
| 20260506183003 | 21 | 194 | 17.7 | 45.1 | 0.00 | 0.00 | 0.00 | 57 | 1006.1 |
| 20260506182502 | 22 | 191 | 17.7 | 45.1 | 0.00 | 0.00 | 0.00 | 54 | 1006.1 |
| 20260506182003 | 22 | 195 | 16.1 | 27.4 | 0.00 | 0.00 | 0.00 | 53 | 1005.9 |
| 20260506181502 | 22 | 194 | 9.7 | 32.2 | 0.00 | 0.00 | 0.00 | 54 | 1006.1 |
| 20260506181002 | 22 | 192 | 11.3 | 32.2 | 0.00 | 0.00 | 0.00 | 53 | 1006.1 |
| 20260506180502 | 22 | 187 | 16.1 | 41.8 | 0.00 | 0.00 | 0.00 | 52 | 1006.2 |
| 20260506180004 | 22 | 187 | 19.3 | 41.8 | 0.00 | 0.00 | 0.00 | 51 | 1006.3 |
| 20260506175523 | 22 | 209 | 17.7 | 46.7 | 0.00 | 0.00 | 0.00 | 51 | 1006.2 |
| 20260506175003 | 22 | 190 | 22.5 | 46.7 | 0.00 | 0.00 | 0.00 | 51 | 1006.2 |
| 20260506174502 | 22 | 187 | 16.1 | 41.8 | 0.00 | 0.00 | 0.00 | 51 | 1006.3 |
| 20260506174003 | 22 | 182 | 24.1 | 43.5 | 0.00 | 0.00 | 0.00 | 52 | 1006.3 |
| 20260506173502 | 22 | 176 | 19.3 | 45.1 | 0.00 | 0.00 | 0.00 | 54 | 1006.3 |
| 20260506173003 | 22 | 184 | 16.1 | 45.1 | 0.00 | 0.00 | 0.00 | 55 | 1006.4 |
| 20260506172502 | 23 | 181 | 20.9 | 41.8 | 0.00 | 0.00 | 0.00 | 52 | 1006.3 |
| 20260506172003 | 23 | 185 | 14.5 | 37.0 | 0.00 | 0.00 | 0.00 | 51 | 1006.3 |
| 20260506171502 | 23 | 197 | 16.1 | 30.6 | 0.00 | 0.00 | 0.00 | 51 | 1006.4 |
| 20260506171023 | 23 | 175 | 9.7 | 27.4 | 0.00 | 0.00 | 0.00 | 51 | 1006.3 |
| 20260506170524 | 23 | 193 | 14.5 | 33.8 | 0.00 | 0.00 | 0.00 | 53 | 1006.4 |
| 20260506170023 | 22 | 184 | 19.3 | 33.8 | 0.00 | 0.00 | 0.00 | 53 | 1006.5 |
| 20260506165503 | 22 | 194 | 14.5 | 29.0 | 0.00 | 0.00 | 0.00 | 54 | 1006.6 |
| 20260506165045 | 22 | 187 | 14.5 | 29.0 | 0.00 | 0.00 | 0.00 | 53 | 1006.8 |
| 20260506164502 | 22 | 192 | 14.5 | 32.2 | 0.00 | 0.00 | 0.00 | 53 | 1006.8 |
| 20260506164003 | 22 | 186 | 19.3 | 32.2 | 0.00 | 0.00 | 0.00 | 53 | 1006.9 |
| 20260506163524 | 22 | 207 | 16.1 | 32.2 | 0.00 | 0.00 | 0.00 | 54 | 1006.9 |
| 20260506163003 | 22 | 177 | 16.1 | 32.2 | 0.00 | 0.00 | 0.00 | 53 | 1006.9 |
| 20260506162502 | 22 | 202 | 17.7 | 30.6 | 0.00 | 0.00 | 0.00 | 53 | 1007.1 |
| 20260506162002 | 22 | 179 | 11.3 | 25.7 | 0.00 | 0.00 | 0.00 | 54 | 1007.1 |
| 20260506161502 | 22 | 183 | 12.9 | 25.7 | 0.00 | 0.00 | 0.00 | 53 | 1007.3 |
| 20260506161002 | 22 | 189 | 9.7 | 35.4 | 0.00 | 0.00 | 0.00 | 54 | 1007.4 |
| 20260506160503 | 22 | 203 | 17.7 | 35.4 | 0.00 | 0.00 | 0.00 | 54 | 1007.5 |
| 20260506160002 | 22 | 197 | 9.7 | 29.0 | 0.00 | 0.00 | 0.00 | 55 | 1007.6 |
| 20260506155503 | 22 | 179 | 11.3 | 24.1 | 0.00 | 0.00 | 0.00 | 56 | 1007.7 |
| 20260506155023 | 22 | 196 | 6.4 | 24.1 | 0.00 | 0.00 | 0.00 | 58 | 1007.9 |
| 20260506154524 | 22 | 185 | 14.5 | 24.1 | 0.00 | 0.00 | 0.00 | 57 | 1008.0 |
| 20260506154002 | 22 | 220 | 11.3 | 25.7 | 0.00 | 0.00 | 0.00 | 56 | 1008.1 |
| 20260506153503 | 22 | 191 | 12.9 | 25.7 | 0.00 | 0.00 | 0.00 | 57 | 1008.2 |
| 20260506153024 | 22 | 178 | 14.5 | 22.5 | 0.00 | 0.00 | 0.00 | 57 | 1008.3 |
| 20260506152502 | 21 | 192 | 11.3 | 29.0 | 0.00 | 0.00 | 0.00 | 57 | 1008.2 |
| 20260506152003 | 21 | 177 | 12.9 | 29.0 | 0.00 | 0.00 | 0.00 | 58 | 1008.4 |
| 20260506151502 | 21 | 215 | 12.9 | 29.0 | 0.00 | 0.00 | 0.00 | 58 | 1008.6 |
| 20260506151003 | 21 | 186 | 16.1 | 25.7 | 0.00 | 0.00 | 0.00 | 58 | 1008.4 |
| 20260506150503 | 21 | 202 | 8.0 | 27.4 | 0.00 | 0.00 | 0.00 | 59 | 1008.3 |
| 20260506150002 | 21 | 174 | 11.3 | 27.4 | 0.00 | 0.00 | 0.00 | 59 | 1008.5 |
| 20260506145503 | 21 | 179 | 11.3 | 25.7 | 0.00 | 0.00 | 0.00 | 61 | 1008.8 |
| 20260506145002 | 21 | 175 | 9.7 | 25.7 | 0.00 | 0.00 | 0.00 | 61 | 1008.6 |
| 20260506144503 | 21 | 181 | 11.3 | 25.7 | 0.00 | 0.00 | 0.00 | 61 | 1008.5 |
| 20260506144002 | 21 | 195 | 12.9 | 24.1 | 0.00 | 0.00 | 0.00 | 61 | 1008.6 |
| 20260506143503 | 21 | 181 | 14.5 | 35.4 | 0.00 | 0.00 | 0.00 | 61 | 1008.4 |
| 20260506143024 | 20 | 187 | 14.5 | 35.4 | 0.00 | 0.00 | 0.00 | 63 | 1008.5 |
| 20260506142503 | 21 | 184 | 12.9 | 29.0 | 0.00 | 0.00 | 0.00 | 63 | 1008.4 |
| 20260506142002 | 20 | 192 | 14.5 | 27.4 | 0.00 | 0.00 | 0.00 | 63 | 1008.4 |
| 20260506141503 | 20 | 180 | 11.3 | 27.4 | 0.00 | 0.00 | 0.00 | 63 | 1008.2 |
| 20260506141023 | 20 | 189 | 8.0 | 27.4 | 0.00 | 0.00 | 0.00 | 66 | 1008.5 |
| 20260506140503 | 20 | 192 | 17.7 | 27.4 | 0.00 | 0.00 | 0.00 | 65 | 1008.4 |
| 20260506140002 | 20 | 182 | 11.3 | 30.6 | 0.00 | 0.00 | 0.00 | 66 | 1008.5 |
| 20260506135503 | 20 | 189 | 16.1 | 30.6 | 0.00 | 0.00 | 0.00 | 66 | 1008.3 |
| 20260506135003 | 19 | 185 | 12.9 | 24.1 | 0.00 | 0.00 | 0.00 | 67 | 1008.6 |
| 20260506134502 | 19 | 181 | 14.5 | 24.1 | 0.00 | 0.00 | 0.00 | 67 | 1008.6 |
| 20260506134002 | 19 | 176 | 12.9 | 20.9 | 0.00 | 0.00 | 0.00 | 67 | 1008.8 |
| 20260506133503 | 18 | 189 | 12.9 | 24.1 | 0.00 | 0.00 | 0.00 | 68 | 1008.9 |
| 20260506133002 | 18 | 190 | 11.3 | 30.6 | 0.00 | 0.00 | 0.00 | 68 | 1009.0 |
| 20260506132503 | 18 | 201 | 14.5 | 30.6 | 0.00 | 0.00 | 0.00 | 68 | 1009.0 |
| 20260506132002 | 18 | 178 | 11.3 | 22.5 | 0.00 | 0.00 | 0.00 | 68 | 1009.0 |
| 20260506131503 | 18 | 189 | 11.3 | 22.5 | 0.00 | 0.00 | 0.00 | 69 | 1008.9 |
| 20260506131003 | 18 | 200 | 9.7 | 27.4 | 0.00 | 0.00 | 0.00 | 69 | 1009.0 |
| 20260506130502 | 18 | 177 | 11.3 | 29.0 | 0.00 | 0.00 | 0.00 | 69 | 1008.9 |
| 20260506130003 | 18 | 188 | 14.5 | 29.0 | 0.00 | 0.00 | 0.00 | 70 | 1009.0 |
| 20260506125502 | 18 | 184 | 12.9 | 29.0 | 0.00 | 0.00 | 0.00 | 69 | 1008.9 |
| 20260506125003 | 18 | 207 | 12.9 | 29.0 | 0.00 | 0.00 | 0.00 | 69 | 1009.0 |
| 20260506124502 | 18 | 195 | 11.3 | 27.4 | 0.00 | 0.00 | 0.00 | 69 | 1008.8 |
| 20260506124003 | 18 | 182 | 17.7 | 27.4 | 0.00 | 0.00 | 0.00 | 69 | 1008.9 |
| 20260506123502 | 18 | 194 | 14.5 | 25.7 | 0.00 | 0.00 | 0.00 | 69 | 1008.9 |
| 20260506123002 | 18 | 195 | 11.3 | 25.7 | 0.00 | 0.00 | 0.00 | 70 | 1009.0 |
| 20260506122524 | 18 | 197 | 8.0 | 25.7 | 0.00 | 0.00 | 0.00 | 70 | 1009.2 |
| 20260506122024 | 18 | 179 | 9.7 | 24.1 | 0.00 | 0.00 | 0.00 | 69 | 1009.0 |
| 20260506121524 | 18 | 202 | 11.3 | 22.5 | 0.00 | 0.00 | 0.00 | 68 | 1009.1 |
| 20260506121002 | 18 | 206 | 8.0 | 22.5 | 0.00 | 0.00 | 0.00 | 71 | 1008.9 |
| 20260506120503 | 17 | 186 | 11.3 | 22.5 | 0.00 | 0.00 | 0.00 | 72 | 1008.9 |
| 20260506120004 | 17 | 187 | 11.3 | 22.5 | 0.00 | 0.00 | 0.00 | 72 | 1009.2 |
| 20260506115523 | 17 | 210 | 11.3 | 24.1 | 0.00 | 0.00 | 0.00 | 71 | 1009.1 |
| 20260506115003 | 17 | 203 | 14.5 | 24.1 | 0.00 | 0.00 | 0.00 | 71 | 1009.1 |
| 20260506114502 | 17 | 181 | 9.7 | 29.0 | 0.00 | 0.00 | 0.00 | 72 | 1009.2 |
| 20260506114003 | 17 | 189 | 17.7 | 29.0 | 0.00 | 0.00 | 0.00 | 72 | 1009.2 |
| 20260506113503 | 17 | 192 | 14.5 | 25.7 | 0.00 | 0.00 | 0.00 | 72 | 1009.3 |
| 20260506113002 | 17 | 198 | 11.3 | 25.7 | 0.00 | 0.00 | 0.00 | 72 | 1009.4 |
| 20260506112502 | 17 | 206 | 11.3 | 25.7 | 0.00 | 0.00 | 0.00 | 72 | 1009.4 |
| 20260506112003 | 17 | 185 | 12.9 | 25.7 | 0.00 | 0.00 | 0.00 | 72 | 1009.4 |
| 20260506111503 | 17 | 187 | 9.7 | 24.1 | 0.00 | 0.00 | 0.00 | 73 | 1009.3 |
| 20260506111002 | 17 | 201 | 12.9 | 24.1 | 0.00 | 0.00 | 0.00 | 73 | 1009.2 |
| 20260506110503 | 16 | 182 | 9.7 | 25.7 | 0.00 | 0.00 | 0.00 | 73 | 1009.3 |
| 20260506110044 | 16 | 202 | 12.9 | 25.7 | 0.00 | 0.00 | 0.00 | 74 | 1009.3 |
| 20260506105504 | 16 | 186 | 9.7 | 24.1 | 0.00 | 0.00 | 0.00 | 74 | 1009.4 |
| 20260506105002 | 16 | 192 | 8.0 | 19.3 | 0.00 | 0.00 | 0.00 | 74 | 1009.5 |
| 20260506104545 | 16 | 192 | 9.7 | 19.3 | 0.00 | 0.00 | 0.00 | 74 | 1009.5 |
| 20260506104002 | 16 | 179 | 12.9 | 19.3 | 0.00 | 0.00 | 0.00 | 75 | 1009.4 |
| 20260506103503 | 16 | 184 | 11.3 | 16.1 | 0.00 | 0.00 | 0.00 | 74 | 1009.3 |
| 20260506103003 | 16 | 185 | 8.0 | 19.3 | 0.00 | 0.00 | 0.00 | 74 | 1009.3 |
| 20260506102525 | 16 | 187 | 6.4 | 22.5 | 0.00 | 0.00 | 0.00 | 74 | 1009.3 |
| 20260506102002 | 16 | 189 | 14.5 | 22.5 | 0.00 | 0.00 | 0.00 | 74 | 1009.3 |
| 20260506101503 | 16 | 193 | 9.7 | 25.7 | 0.00 | 0.00 | 0.00 | 74 | 1009.4 |
| 20260506101002 | 16 | 191 | 12.9 | 25.7 | 0.00 | 0.00 | 0.00 | 74 | 1009.3 |
| 20260506100503 | 16 | 191 | 9.7 | 19.3 | 0.00 | 0.00 | 0.00 | 74 | 1009.3 |
| 20260506100003 | 16 | 197 | 11.3 | 19.3 | 0.00 | 0.00 | 0.00 | 74 | 1009.4 |